Location: Dzierzno
(50.6159°N, 19.2852°E)
Time: 07:17:38
(UTC+00:00)

YAOGAN 1 - Pass Details

Date: 18 November 2025
Orbit: 605 x 607 km, 97.8° (Epoch: 06 December)

Event Time Altitude Azimuth Distance (km) Brightness Sun altitude
Rises 16:41:46 0° 154° (SSE) 2,855 5.8 -17.0°
Reaches altitude 10° 16:43:57 10° 151° (SSE) 1,955 4.9 -17.3°
Maximum altitude 16:48:08 60° 72° (ENE) 699 2.5 -18.0°
Drops below altitude 10° 16:52:21 10° 353° (N) 1,969 5.1 -18.7°
Sets 16:54:33 0° 350° (N) 2,878 6.0 -19.0°
